Regional Weather Roundup
Issued by NWS

Home | Current Version | Previous Version | Graphics & Text | Print | Product List | Glossary On
Versions: 1 2 3 4 5 6 7 8 9 10 11 12 13 14 15 16 17 18 19 20 21 22 23 24 25 26 27 28 29 30 31 32 33 34 35 36 37 38 39 40 41 42 43 44 45 46 47 48 49 50
000
ASUS45 KTFX 171319
RWRMT
MONTANA HOURLY WEATHER ROUNDUP
NATIONAL WEATHER SERVICE GREAT FALLS MT
719 AM MDT WED SEP 17 2014

NOTE: "FAIR" INDICATES FEW OR NO CLOUDS BELOW 12000 FEET WITH NO
SIGNIFICANT WEATHER AND/OR OBSTRUCTIONS TO VISIBILITY.

* THESE STATIONS ARE NOT UNDER NWS QUALITY CONTROL. THEY DO NOT
   REPORT WEATHER SUCH AS PRECIPITATION OR FOG.

MTZ001>007-043-171400-
WEST OF THE DIVIDE
CITY           SKY/WX    TMP DP  RH WIND       PRES   REMARKS
KALISPELL      MOCLDY    48  43  83 NW6       29.89S
MISSOULA       PTCLDY    46  43  89 CALM      29.95R
BUTTE          PTCLDY    39  37  93 SE5       30.06S WCI  35
MULLAN PASS    PTCLDY    61  37  41 S5        30.01F
* ESSEX        N/A       48  42  80 E4         N/A
* LINCOLN      N/A       37  35  92 N/A        N/A
* LOOKOUT PASS N/A       53  41  64 S1         N/A
* POLSON       N/A       53  42  66 N/A        N/A
* RONAN APT    PTCLDY    45  39  80 N/A        N/A
* SEELEY LAKE  N/A       39  36  89 N/A        N/A
* THOMP F APT  PTCLDY    56  35  45 NE3        N/A
$$

MTZ008-052>055-171400-
SOUTHWEST MONTANA
CITY           SKY/WX    TMP DP  RH WIND       PRES   REMARKS
BOZEMAN        PTCLDY    45  43  93 S3        30.01S
DILLON         PTCLDY    48  43  83 S8        30.04S
W YELLOWSTONE  CLEAR     30  28  92 CALM      30.17S
* THREE FORKS  CLEAR     45  27  49 N/A        N/A
* BOULDER HILL N/A       49  41  74 S12        N/A
* RAYNOLDS PAS N/A       43  29  58 SE3        N/A
* WHITEHALL    N/A       45  40  83 N6         N/A
* WISE RIVER   N/A       39  37  93 W3         N/A
$$

MTZ009>010-012-014-046-048-049-054-171400-
EAST SLOPES AND CENTRAL MONTANA
CITY           SKY/WX    TMP DP  RH WIND       PRES   REMARKS
CUT BANK       PTCLDY    48  41  77 W12       29.91S
GREAT FALLS    MOCLDY    57  46  67 SW14      29.90S
HELENA         PTCLDY    52  46  80 S3        29.97R
MALMSTROM AFB  MOCLDY    61  46  58 SW10      29.90F
* CONRAD       PTCLDY    46  45  96 N/A        N/A
* EAST GLACIER N/A       47  38  71 NW9        N/A
* MONARCH      N/A       51  41  69 NE2        N/A
* PENDROY      N/A       60  40  48 VRB4       N/A
* SAINT MARY   N/A       38  36  93 SE3        N/A
* SWEET GRASS  N/A       60  37  43 W8         N/A
$$

MTZ011-013-016-021-035-040-045-047-050-051-171400-
NORTH CENTRAL MONTANA
CITY           SKY/WX    TMP DP  RH WIND       PRES   REMARKS
HAVRE          PTCLDY    45  45 100 SE6       29.87S
LEWISTOWN      PTCLDY    52  45  77 S7        29.95S
* CHINOOK      MOCLDY    52  48  86 E3        29.87R
* FORT BENTON  PTCLDY    55  46  72 CALM      29.89R
* CHESTER      N/A       47  41  80 N2         N/A
* DENTON       N/A       55  46  72 S9         N/A
* JUDITH GAP   N/A       54  46  74 SE6        N/A
* LOMA         N/A       56  49  77 E3         N/A
$$

MTZ017>020-022>027-061-062-171400-
NORTHEAST MONTANA
CITY           SKY/WX    TMP DP  RH WIND       PRES   REMARKS
GLASGOW        CLOUDY    52  41  66 E15       29.88F
JORDAN         CLOUDY    46  45  96 CALM      29.90R
SIDNEY         PTCLDY    39  37  93 CALM      29.96R
WOLF POINT     MOCLDY    43  37  79 E6        29.93R
* BEAVER HILL  N/A       51  45  80 SE9        N/A
* CIRCLE       N/A       51  46  83 N/A        N/A
* LINDSAY DVD  N/A       50  43  77 E2         N/A
* NAVAJO       N/A       49  35  59 E1         N/A
* SACO         N/A       48  42  80 NE6        N/A
$$

MTZ028>042-056>058-171400-
SOUTHCENTRAL AND SOUTHEAST MONTANA
CITY           SKY/WX    TMP DP  RH WIND       PRES   REMARKS
BAKER          PTCLDY    45  45 100 E7        29.96R
BILLINGS       PTCLDY    63  45  52 SW10      29.93F
LIVINGSTON     FAIR      50  43  77 N12       30.01R
MILES CITY     PTCLDY    48  45  89 CALM      29.91R
* LAUREL APT   PTCLDY    57  45  64 N/A        N/A
* ROUNDUP APT  MOCLDY    57  45  64 S8         N/A
* ALZADA       N/A       47  43  86 E4         N/A
* HYSHAM       N/A       57  42  57 W4         N/A
* LAME DEER    N/A       65  39  39 W9         N/A
* REED POINT   N/A       52  48  86 W7         N/A
* ROSCOE HILL  N/A       57  38  49 NW4        N/A
$$

REGIONAL REPORTS...DAKOTAS
CITY           SKY/WX    TMP DP  RH WIND       PRES   REMARKS
WILLISTON      PTCLDY    41  37  86 CALM      29.96R
DICKINSON      CLOUDY    46  43  89 CALM      29.95R
BEACH          N/A       43  43 100 SE5       29.96R
CROSBY         CLEAR     45  41  86 SW7       29.95R
TIOGA          CLEAR     32  32 100 CALM      29.99R
WATFORD CITY   CLEAR     37  36  96 CALM      29.95R
BISMARCK       CLEAR     37  37 100 CALM      29.96R
GRAND FORKS    FAIR      45  41  86 NW6       29.95R
FARGO          FOG       46  45  96 N10       29.93R
BUFFALO SD     PTCLDY    48  43  83 W3        29.90R
RAPID CITY     CLEAR     52  39  61 NW10      29.96R
$$

REGIONAL REPORTS...WYOMING/IDAHO/WASHINGTON
CITY           SKY/WX    TMP DP  RH WIND       PRES   REMARKS
GILLETTE       CLOUDY    64  37  37 SW15      29.99R
SHERIDAN       CLOUDY    59  46  62 SW6       29.97R
CODY           CLEAR     48  43  83 NE3       30.05S
YELLOWSTONE LA CLEAR     34  32  92 CALM      30.25R
SALMON         PTCLDY    45  39  80 CALM      30.01S
MULLAN PASS    PTCLDY    61  37  41 S5        30.01S
SPOKANE        CLOUDY    55  36  49 E3        29.84S
$$

REGIONAL REPORTS...ALBERTA
CITY           SKY/WX    TMP DP  RH WIND       PRES   REMARKS
CALGARY        FAIR      45  37  74 W2        29.88S
LETHBRIDGE     FAIR      43  39  86 SW5       29.87S
MEDICINE HAT   FAIR      41  39  93 S3        29.86R
EDMONTON       PTCLDY    36  34  92 VRB2      29.82S
WATERTON GATE  N/A       50  39  66 S8         N/A
CARDSTON       N/A       46  39  77 SW3        N/A
$$

REGIONAL REPORTS...SASKATCHEWAN
CITY           SKY/WX    TMP DP  RH WIND       PRES   REMARKS
SWIFT CURRENT  CLEAR     46  39  77 SE7       29.90R
MOOSE JAW      FAIR      43  41  93 E7        29.95R
REGINA         CLOUDY    46  46 100 E16       29.95R
VAL MARIE      N/A       41  39  93 NE5        N/A
ASSINIBOIA     N/A       46  41  83 S5         N/A
CORONACH       N/A       36  34  92 W1         N/A

$$



USA.gov is the U.S. government's official web portal to all federal, state and local government web resources and services.